Ордубад

Азербайджан     38°54′21″N   46°01′21″E
В апреле 2022 года жителям России запретили посещать сайт meteo.paraplan.net по решению Генеральной прокуратуры. Аудитория сайта уменьшилась в 10 раз. Владельцы сайта не видят смысла в поддержке погодного сервера в таких условиях. Сайт будет закрыт в октябре.
темп.,
°C
ветер,
м/с
пор.,
м/с
влажн.,
%
обл.,
%
осадки,
мм/ч
давл.,
гПа
погр.,
м
4 октября, вт
вт401:00+14в55590 0.0 1015101
04:00+13в44530 0.0 101575
07:00+12в33590 0.0 101646
10:00+19ю22380 0.0 1016509
13:00+22ююз22230 0.0 10161246
16:00+24юз22180 0.0 10151863
19:00+19в22280 0.0 101723
22:00+17в23360 0.0 101936
5 октября, ср
ср501:00+15всв11390 0.0 101920
04:00+14ссз12330 0.0 102011
07:00+14ссв22300 0.0 102114
10:00+21юз21220 0.0 1021653
13:00+23юз32180 0.0 10191498
16:00+24зюз22140 0.0 10182015
19:00+19всв22200 0.0 101811
22:00+17в44320 0.0 102049
6 октября, чт
чт601:00+16всв44344 0.0 102047
04:00+16всв443411 0.0 102045
07:00+14в34440 0.0 102148
10:00+19юв44380 0.0 1020695
13:00+23ююв43271 0.0 10181182
16:00+23юв43250 0.0 10161195
19:00+16в56550 0.0 1018139
22:00+15в45583 0.0 1019123
7 октября, пт
пт701:00+14в56553 0.0 1019116
04:00+12в56583 0.0 1019120
07:00+11в56685 0.0 1021126
10:00+16вюв55531 0.0 1020441
13:00+20юв65400 0.0 10181020
16:00+19вюв66410 0.0 1017709
19:00+13в677118 0.0 1019235
22:00+11в677212 0.0 1021213
8 октября, сб
сб801:00+11в57698 0.0 1021187
04:00+10в56714 0.0 1021158
07:00+10в46691 0.0 1021124
10:00+15юв55521 0.0 1020406
13:00+19юв55410 0.0 1018694
16:00+20юв55360 0.0 1016742
19:00+15в56612 0.0 1017133
22:00+13в45595 0.0 1018107